Theta_e
316 324 322 323 324 324 326 325 326 325 324 321 321 318 317 318 317 317 315 314 315 313 312 312 310 311 311 311 311 310 310 310 314 313 317 319 311 309 309 308 308 306 306 307 307 306 306 304 303 301 307 314 314 314 316 315 316 316 316 316 317 318 318 318 318 318 318 317 317 317 316 316 316 316 315 314 314 316 319 320 321 321 321 321 322 322 322 321 321 322 322 322 323 322 320 320 321
318 326 323 323 324 325 327 325 325 324 322 319 319 319 318 316 316 318 316 314 314 312 311 311 310 310 309 310 309 308 309 309 313 315 314 311 309 309 307 308 309 307 307 307 306 306 307 306 303 302 306 313 314 314 315 314 315 315 315 315 316 317 317 317 318 317 317 316 316 316 316 316 315 314 313 313 314 317 319 320 321 321 321 321 321 321 321 321 321 322 322 322 322 321 320 321 321
317 325 323 324 325 325 326 325 324 319 320 317 315 319 319 317 317 317 315 312 311 311 312 311 311 310 309 309 309 310 311 310 310 312 311 309 310 309 307 308 307 308 308 307 306 306 307 306 305 303 304 310 314 314 314 314 314 315 315 315 315 316 316 316 317 316 316 316 315 315 315 315 314 312 312 312 314 317 319 320 320 320 320 320 320 320 320 320 321 321 321 321 320 321 321 321 322
313 322 324 325 327 325 326 326 325 320 318 316 314 318 319 318 317 315 314 312 311 311 311 311 311 310 309 311 312 311 311 311 310 310 310 309 309 308 308 307 306 308 307 305 305 306 306 307 306 304 302 308 313 313 313 313 314 315 314 314 314 315 315 315 315 315 315 315 314 313 314 313 312 311 310 311 314 318 319 319 319 320 320 319 319 319 320 320 321 321 321 320 320 321 320 321 321
314 322 324 324 327 326 325 325 324 321 319 318 315 317 318 318 316 314 313 312 312 312 312 311 311 311 310 310 311 312 311 311 310 310 310 309 308 308 307 306 306 307 307 305 305 307 306 307 306 303 303 305 312 313 312 313 313 314 312 312 313 314 315 315 314 314 314 313 313 313 312 310 309 309 307 307 312 317 318 318 319 319 319 319 319 319 320 320 321 320 320 320 320 320 320 320 321
319 322 323 323 325 323 324 323 320 320 320 320 317 317 317 317 316 314 313 312 312 312 312 311 311 311 310 310 310 311 311 310 309 309 310 308 308 307 307 306 306 307 307 307 306 307 306 308 306 304 303 303 310 313 312 312 313 312 310 311 312 313 314 314 313 313 313 313 312 311 308 304 305 305 303 303 309 316 317 318 318 318 318 318 319 319 320 320 320 320 319 320 319 319 319 319 320
321 322 324 324 324 321 323 321 319 320 320 320 319 317 317 317 315 314 313 313 312 312 311 311 310 310 309 311 311 311 311 311 310 310 310 308 308 307 307 306 306 307 307 308 307 307 307 308 306 304 304 303 307 313 313 311 311 309 307 309 311 312 312 312 312 312 312 311 309 306 302 300 301 301 299 300 307 314 316 317 317 317 318 319 319 318 319 319 319 319 319 319 318 318 318 318 319
320 324 325 325 325 323 323 321 321 322 320 319 318 317 317 316 316 314 314 313 313 312 311 310 309 309 310 311 311 311 310 310 310 310 310 309 307 306 307 307 306 307 307 307 307 307 307 307 305 304 305 304 305 310 312 311 309 306 306 307 309 311 311 310 310 311 310 307 304 302 300 299 299 299 298 298 304 313 316 316 317 317 318 318 317 318 318 319 319 318 318 318 317 318 318 318 319
320 324 325 324 325 324 323 321 320 322 320 318 317 316 316 315 315 315 314 312 312 311 311 310 309 309 310 310 310 311 310 309 310 309 309 308 307 306 307 307 306 307 307 307 307 307 307 307 305 304 304 304 304 306 308 309 307 305 305 304 304 306 307 306 305 306 305 302 301 300 300 299 298 298 298 297 303 313 316 315 316 317 318 316 316 317 318 319 319 318 318 317 317 317 316 317 318
321 323 324 324 323 322 322 321 320 322 320 318 317 315 315 315 314 314 314 312 311 310 310 310 309 309 310 309 310 311 310 309 309 308 308 308 307 307 307 307 307 308 308 307 308 307 308 308 306 305 304 304 304 304 304 305 304 304 304 302 301 302 302 302 302 302 301 301 300 300 300 300 299 298 297 297 303 312 314 314 315 317 317 316 316 318 318 319 319 318 317 316 316 315 316 317 317
323 322 322 323 322 320 319 320 321 322 319 316 316 315 315 314 314 314 314 313 311 310 310 309 309 309 309 309 310 310 310 309 308 308 308 308 308 307 307 307 307 307 308 308 308 308 308 308 307 305 304 304 304 304 304 303 303 303 303 302 301 301 301 301 301 301 300 300 300 300 300 300 299 298 297 298 304 311 313 313 315 316 316 316 316 318 318 318 318 318 316 315 315 315 316 317 317
325 325 323 322 321 320 320 319 320 321 319 316 315 314 314 314 314 313 313 313 311 310 309 308 309 309 309 310 311 309 309 308 308 308 308 308 308 308 308 307 307 306 307 308 307 307 307 308 309 308 306 305 304 304 303 303 303 303 303 302 301 301 301 301 301 301 301 300 300 300 300 300 299 299 298 298 302 310 313 314 314 315 315 316 316 317 317 318 317 317 316 315 315 315 315 316 317
325 327 325 322 321 323 321 320 320 321 320 316 313 312 313 314 314 313 312 312 311 310 310 309 309 309 309 310 310 309 308 308 308 309 308 308 308 308 308 307 307 306 306 306 305 305 305 307 309 310 309 307 304 304 303 303 303 303 302 301 301 301 301 301 301 301 301 301 301 300 300 301 301 300 299 298 299 306 312 314 314 314 315 316 316 316 317 316 315 316 315 315 315 314 315 316 317
324 326 325 324 324 323 321 320 319 319 317 313 311 310 312 313 313 313 312 312 311 310 310 309 309 308 309 310 310 309 309 309 309 309 308 308 308 308 308 308 307 306 305 305 305 305 306 308 310 310 309 308 307 306 305 306 306 304 302 301 301 301 301 301 302 302 301 301 301 301 301 302 301 301 301 299 298 305 312 314 314 314 314 316 316 316 317 315 314 315 314 314 315 314 315 316 317
323 325 323 324 323 321 321 320 319 319 315 311 310 310 312 312 311 312 312 311 310 309 309 309 309 308 309 310 310 310 309 309 309 308 309 308 308 308 308 308 307 305 304 305 306 307 308 309 310 310 309 309 308 308 308 308 307 304 302 302 302 301 301 302 302 302 302 302 302 302 303 303 302 302 302 300 299 304 311 314 314 314 314 315 316 317 318 315 314 314 313 314 315 315 315 315 316
321 323 323 322 320 320 321 321 320 318 313 309 309 309 312 311 310 310 309 309 309 308 309 309 308 308 309 310 310 309 308 309 309 308 308 308 308 309 308 307 306 307 307 306 307 308 309 309 310 309 310 309 309 308 308 309 306 303 302 302 302 301 301 302 302 302 302 302 301 302 303 303 303 302 303 301 299 303 309 312 314 314 314 315 316 317 317 315 314 314 314 315 314 314 315 315 315
318 321 323 322 320 320 321 320 318 316 312 309 308 309 311 311 309 309 308 307 309 309 309 308 308 308 308 309 309 308 308 309 309 308 309 309 308 309 309 308 308 309 309 308 308 308 309 309 309 309 309 309 309 307 307 307 304 302 303 303 303 303 303 303 303 303 303 303 302 302 304 304 303 303 304 302 300 302 306 310 313 314 314 315 315 316 317 316 314 314 315 315 314 314 314 315 315
319 322 321 321 321 318 316 315 313 313 312 309 309 309 310 311 309 308 308 307 308 308 308 308 308 308 308 308 309 308 308 308 309 309 310 310 309 309 309 309 309 309 309 309 309 309 309 309 309 309 309 309 309 306 305 304 304 304 304 305 305 305 305 304 304 305 305 304 303 302 304 304 303 304 304 303 301 301 304 307 311 314 314 315 315 316 317 316 314 313 315 314 314 314 314 315 315
319 321 320 321 319 315 312 311 310 312 312 310 310 309 309 309 309 308 307 308 308 308 308 308 309 308 308 308 308 308 307 308 309 310 311 311 310 310 310 310 310 309 309 309 309 309 309 309 310 309 308 309 308 306 306 306 306 307 306 306 306 306 306 305 305 306 306 306 304 302 303 303 304 304 304 304 302 301 302 305 310 314 314 315 315 316 316 317 315 313 314 314 313 314 314 315 315
317 319 321 320 315 312 310 310 310 309 310 311 310 309 308 308 308 308 307 308 309 308 309 309 309 308 309 308 308 308 307 309 309 310 312 312 311 311 311 311 310 310 309 309 310 309 309 308 309 309 309 309 307 307 308 307 307 307 306 307 307 306 306 306 306 306 307 307 305 303 303 303 304 305 304 304 303 302 301 304 309 312 314 314 315 316 316 317 317 315 314 314 313 313 314 315 316
315 316 318 316 313 313 310 309 308 308 308 309 310 309 308 309 308 308 308 309 309 309 310 310 310 309 309 309 309 309 308 309 310 310 312 313 313 312 311 311 311 311 310 310 309 309 309 308 309 309 309 307 305 306 308 307 307 307 307 307 306 306 307 306 306 307 307 307 305 304 303 303 304 305 305 304 303 303 301 303 307 310 313 314 314 316 316 316 318 318 316 315 314 314 314 315 316
313 314 315 313 312 312 310 308 307 307 308 308 309 309 308 309 308 308 308 309 310 310 310 310 310 310 310 311 310 310 309 309 310 311 312 312 313 313 312 312 311 311 311 310 309 308 308 309 308 309 309 307 304 306 308 307 307 306 307 307 306 306 307 306 306 307 306 306 306 305 303 303 304 305 304 304 304 303 301 302 304 307 312 314 314 316 316 316 317 318 319 318 317 316 315 315 315
312 314 312 311 310 311 309 308 307 306 307 308 308 308 308 308 308 308 308 308 309 310 309 309 309 308 309 310 311 311 311 310 310 310 311 312 312 313 313 312 311 310 310 310 308 307 309 309 308 308 309 307 305 306 307 307 306 307 307 306 306 307 306 306 307 306 306 306 306 306 303 302 304 304 304 304 304 304 302 302 302 305 310 313 314 315 315 316 317 318 319 319 319 319 318 317 317
312 314 312 310 309 309 308 307 307 305 306 307 308 307 307 308 308 309 309 308 309 309 309 309 308 307 307 308 310 310 311 311 310 311 312 312 312 312 312 312 311 310 310 309 308 308 309 309 307 306 308 308 306 305 305 306 307 307 306 306 307 307 305 306 306 305 306 306 306 306 303 302 303 304 304 304 304 304 303 302 301 303 307 311 314 315 315 316 317 317 318 318 319 320 320 320 319
311 313 312 309 308 308 307 306 307 306 306 307 306 307 307 307 308 309 309 309 309 310 310 309 308 307 307 307 308 309 310 310 311 311 311 311 312 312 312 312 311 310 310 309 309 309 309 309 307 305 306 308 308 307 305 306 307 307 306 307 307 307 306 306 305 305 306 306 306 305 303 302 303 304 304 303 304 304 304 303 301 301 303 308 313 314 315 316 316 317 318 318 319 320 321 320 321
311 311 310 309 309 309 307 306 307 307 308 308 308 307 308 308 309 309 309 309 308 309 309 309 309 308 307 307 307 308 309 309 310 312 312 311 312 312 312 312 310 310 310 309 308 309 309 309 306 305 305 307 308 308 306 307 307 307 307 307 306 307 307 306 305 306 306 306 306 303 302 303 303 304 304 303 303 304 305 303 302 300 301 306 310 313 315 315 316 317 317 318 318 320 321 321 321
308 308 308 308 309 308 308 307 307 308 308 310 311 309 309 310 310 309 310 311 310 309 309 309 309 308 308 308 307 307 307 307 309 311 311 310 311 311 311 310 309 309 308 308 309 310 310 308 305 305 306 307 308 307 307 308 307 307 307 307 306 307 306 305 306 307 306 306 305 302 302 302 303 304 303 302 303 304 305 303 302 300 300 303 306 310 314 315 316 316 316 317 318 319 320 321 321
307 308 308 308 309 308 308 308 308 308 307 309 310 309 310 311 311 310 310 311 310 310 310 309 309 309 308 308 308 308 307 307 308 309 309 310 311 311 311 310 309 309 308 309 309 310 310 306 305 306 306 307 307 306 307 308 307 307 306 305 307 307 304 304 307 307 306 306 305 302 302 301 302 304 302 301 304 304 305 304 303 301 301 302 303 307 311 313 316 315 316 317 317 318 319 320 321
307 307 308 309 309 308 308 307 308 308 307 307 307 308 311 313 313 312 310 310 310 310 310 310 309 308 309 308 309 309 308 307 307 308 308 310 311 310 310 309 309 309 309 309 309 310 309 306 305 306 306 306 305 306 308 307 307 308 306 306 307 306 305 306 306 306 305 305 305 304 303 301 302 302 301 301 303 304 305 305 303 301 301 302 302 304 305 308 314 313 313 317 316 316 318 320 320
308 306 307 308 309 309 308 308 308 307 307 308 308 309 310 314 316 312 311 310 310 310 310 310 310 309 309 309 310 310 310 308 307 307 308 309 309 309 309 309 309 309 309 310 310 310 308 306 306 305 305 305 304 305 308 307 307 307 306 307 307 305 306 307 306 306 305 305 305 305 304 302 301 301 301 301 303 304 304 304 303 301 302 303 302 303 302 305 309 309 309 313 313 312 315 318 319
309 309 308 309 309 310 309 308 308 307 308 308 309 309 308 310 316 314 311 311 310 311 311 311 311 310 310 311 312 311 310 309 308 308 309 309 308 309 309 309 310 310 309 310 310 310 308 305 305 304 304 304 303 306 308 308 307 306 306 307 307 305 306 306 306 305 305 305 305 306 304 302 301 301 301 301 303 304 303 304 303 302 303 303 303 302 302 303 305 306 307 308 307 307 311 316 318
310 311 312 311 310 311 311 309 308 308 309 308 310 312 310 310 315 314 312 312 311 311 311 312 312 311 311 312 311 311 309 308 308 308 308 308 308 309 310 309 310 310 310 310 309 309 307 305 305 304 304 303 303 305 305 306 306 305 307 307 306 305 305 306 306 304 304 305 305 305 303 301 302 302 301 302 303 304 303 303 302 302 304 304 303 302 302 302 304 305 308 307 304 304 307 312 316
312 312 313 313 311 313 313 310 309 311 310 309 311 313 312 312 314 313 312 312 311 311 311 312 312 312 312 311 311 310 310 309 309 308 308 308 308 309 310 309 310 309 309 310 309 308 306 305 305 304 304 304 303 303 303 304 305 305 305 306 304 304 306 307 305 303 305 304 304 303 302 302 302 302 301 301 303 305 304 303 302 302 304 304 303 302 301 302 304 304 307 308 304 303 304 307 312
313 312 312 313 312 311 312 312 311 311 311 310 311 311 311 311 313 313 313 312 312 312 312 312 313 313 312 311 311 310 310 311 310 308 308 309 309 309 309 308 309 309 308 309 308 308 306 305 305 304 303 304 304 303 302 304 305 305 305 304 303 303 305 306 304 304 304 303 303 302 302 302 302 301 301 301 302 304 305 304 302 302 303 303 302 302 301 302 304 305 305 306 304 302 303 305 308
317 315 313 315 314 312 312 314 312 310 311 312 312 312 311 311 313 313 314 313 313 313 313 314 314 313 312 311 311 309 310 311 310 308 308 309 309 309 309 308 309 308 307 309 309 308 307 305 304 304 304 304 305 304 303 305 306 306 306 305 303 304 304 304 305 305 303 302 303 303 302 302 301 301 301 301 301 303 305 305 303 303 303 302 301 301 301 301 303 305 304 305 303 302 302 303 306
318 318 315 316 315 313 314 314 311 310 313 313 313 313 313 313 314 314 316 316 314 313 313 315 316 315 314 312 312 311 311 310 309 308 308 308 309 309 309 308 308 307 307 308 308 308 307 305 304 305 305 304 305 304 304 307 307 306 307 306 305 306 305 305 305 305 303 303 303 303 302 302 301 301 301 301 301 302 305 306 304 303 303 303 302 301 301 301 303 304 304 305 304 302 301 303 306
316 316 315 317 316 313 316 315 311 311 314 315 315 315 314 315 316 316 317 317 317 315 314 315 316 317 316 314 313 312 312 313 310 309 309 309 309 309 308 307 307 307 307 308 308 308 308 306 305 305 304 303 304 304 304 306 307 307 306 306 307 307 306 305 305 304 303 303 303 303 303 302 302 302 301 301 301 301 303 305 305 304 303 304 305 303 302 301 302 303 304 305 304 303 302 302 305
314 313 314 317 318 317 317 316 311 311 315 317 316 316 315 316 316 317 317 318 318 317 316 316 315 316 316 316 317 315 315 317 313 312 311 311 310 309 308 308 307 306 307 307 308 309 308 306 305 304 304 303 304 304 305 307 308 308 307 307 308 307 306 306 306 305 303 303 303 303 303 302 302 302 301 301 301 301 301 304 305 304 303 304 305 305 303 301 301 302 304 305 305 304 303 302 302
316 315 316 317 320 320 318 316 312 311 315 318 316 316 315 314 314 315 315 316 317 318 318 318 317 317 316 317 318 317 318 318 314 313 313 311 311 310 309 308 307 306 306 307 308 308 308 307 306 306 304 304 306 307 307 309 309 309 308 308 308 307 307 307 306 304 303 303 303 303 303 302 302 302 302 301 301 301 301 302 304 303 303 304 305 305 303 301 301 302 302 304 305 305 304 303 302
318 318 319 320 321 321 319 318 315 313 314 316 317 315 314 315 316 317 316 317 320 324 326 323 321 320 319 320 320 318 318 317 314 313 312 311 311 310 309 308 308 307 307 307 307 307 308 307 307 308 305 304 308 310 309 308 308 309 309 308 307 306 306 306 305 303 303 303 302 302 302 302 302 302 301 302 301 301 301 301 302 302 302 304 304 304 303 302 301 302 302 302 304 304 304 303 303
321 322 322 323 321 319 319 318 318 317 317 316 316 318 320 322 323 323 321 321 322 323 323 324 322 321 321 323 323 319 318 317 313 312 312 311 310 310 309 308 308 307 307 307 307 308 308 308 309 309 307 307 308 308 308 308 306 306 307 307 307 305 305 305 304 303 303 303 302 302 302 302 302 302 302 301 301 301 301 301 302 302 302 303 303 302 303 302 301 302 302 302 303 304 304 303 303
322 324 322 321 319 319 320 320 322 324 322 318 316 322 328 325 321 322 321 322 322 320 321 323 321 319 319 319 320 319 319 319 314 311 311 311 309 309 310 309 309 308 308 308 308 308 308 308 309 309 308 309 308 306 306 306 305 304 305 306 305 305 306 306 306 305 304 303 302 302 302 302 302 302 302 301 301 301 301 301 301 301 301 301 301 301 302 301 301 302 302 301 302 303 303 303 302
321 320 317 317 317 320 321 320 322 325 324 320 318 322 325 321 316 318 322 323 324 321 322 323 319 318 317 316 317 317 319 319 316 312 311 311 309 308 310 310 310 309 308 309 309 308 308 309 310 309 308 308 307 305 305 304 304 304 304 304 304 305 307 307 306 305 304 303 302 301 301 302 301 301 301 301 301 301 301 301 301 301 301 301 301 301 301 301 301 301 301 301 302 303 303 302 302
321 316 314 317 317 318 320 320 321 322 322 321 318 319 322 321 318 319 324 325 325 324 324 323 320 319 318 315 315 315 316 319 317 314 312 311 309 308 309 310 310 309 309 310 309 309 309 310 309 308 308 307 305 305 305 304 305 306 305 304 305 307 308 308 306 305 303 302 301 301 301 301 301 301 301 301 301 301 301 301 301 301 301 301 301 301 300 300 300 301 301 301 301 302 302 301 301
319 312 314 316 315 317 318 319 321 321 321 322 320 317 322 326 321 319 324 323 324 325 325 324 320 320 319 316 315 315 316 318 316 313 313 311 309 309 310 310 310 310 311 310 309 309 309 309 308 308 307 306 305 305 304 304 307 308 307 307 309 308 308 307 304 303 302 302 301 300 300 300 300 300 300 301 301 301 301 301 301 301 300 300 300 300 300 300 300 300 300 300 300 300 301 301 300
315 311 314 314 313 316 317 318 321 320 321 325 323 318 321 328 324 319 321 323 325 325 322 323 321 320 320 317 316 316 315 319 318 314 313 311 309 310 310 310 311 311 311 310 308 308 308 308 307 307 307 306 305 305 304 305 308 309 309 309 310 308 306 305 303 302 302 301 300 300 299 299 299 299 299 300 300 300 300 300 300 300 300 299 299 299 299 299 299 299 299 299 299 300 300 300 299
313 313 318 319 317 317 317 318 318 320 327 325 319 316 316 324 327 323 322 324 325 321 319 322 322 320 320 318 318 316 314 318 318 316 314 311 310 310 310 310 311 311 310 308 307 307 307 307 307 307 306 305 305 305 305 306 307 309 309 309 309 307 304 303 302 302 301 301 300 300 299 299 298 298 298 299 299 299 299 299 299 299 299 299 298 298 298 298 298 298 298 298 298 298 299 299 298
314 317 321 323 322 319 318 318 317 323 331 323 315 315 316 321 327 324 320 320 319 318 318 320 320 321 320 319 317 315 314 315 316 316 316 314 313 311 310 311 310 310 309 308 307 307 306 306 306 306 306 305 305 305 305 306 307 308 308 307 307 305 303 302 302 302 301 301 300 300 299 299 298 298 298 298 298 297 298 298 298 298 298 298 298 297 297 297 297 297 297 297 297 297 297 298 298
315 319 321 324 325 322 322 325 324 327 327 319 314 315 319 322 319 317 317 317 317 319 321 322 321 320 320 319 317 316 317 316 314 315 316 316 315 311 309 309 309 308 308 308 307 307 306 306 306 306 306 305 305 305 305 305 306 306 306 306 305 304 303 302 302 301 301 300 300 299 299 298 298 297 297 297 297 296 297 297 297 297 297 298 297 297 296 296 296 296 295 295 296 296 296 296 296
316 320 321 325 327 323 324 325 324 324 322 318 315 315 322 322 317 317 318 316 318 318 319 321 322 321 321 320 318 317 317 315 315 316 315 315 314 310 308 308 308 307 307 307 307 307 306 306 306 306 305 305 305 305 305 305 305 306 305 304 304 303 303 302 302 301 301 300 300 299 298 298 297 297 297 296 296 296 296 296 296 296 296 297 296 295 295 294 294 293 292 292 292 293 294 294 294
318 320 319 323 325 323 325 325 322 324 323 319 315 318 325 323 320 322 320 317 318 315 316 317 317 319 320 320 319 318 316 315 316 316 315 314 311 309 308 308 308 307 307 307 307 306 306 306 306 305 305 305 304 304 304 304 304 305 304 304 303 303 303 302 302 301 301 300 300 299 298 298 297 296 296 296 295 295 295 295 294 294 294 294 293 293 292 291 291 290 290 290 289 290 290 291 292
317 318 319 322 321 321 325 323 320 322 323 322 320 323 327 323 321 322 319 319 319 315 316 315 314 315 317 319 319 318 316 314 316 316 315 314 311 308 309 308 308 308 307 307 307 306 306 306 306 305 305 304 304 304 304 303 303 304 304 303 303 303 303 302 302 301 301 300 300 299 298 298 297 296 295 294 294 294 293 292 292 291 291 290 290 290 290 289 289 289 289 289 288 288 288 289 290
315 316 318 317 314 316 323 321 317 318 322 324 322 323 324 320 320 322 319 320 319 316 316 315 314 315 316 320 320 318 317 316 317 317 315 314 311 309 309 308 308 308 307 307 307 306 306 305 305 305 304 304 303 303 303 303 303 302 302 302 302 302 302 301 301 300 300 300 299 299 298 297 296 295 294 293 292 291 290 289 289 289 289 288 288 288 288 288 288 288 287 288 287 287 287 287 288
315 317 316 315 313 314 318 320 320 321 323 323 320 320 320 316 318 321 319 322 323 319 317 315 315 316 317 320 320 319 318 317 318 317 316 315 311 309 309 308 308 308 307 307 306 306 306 305 305 304 304 303 303 302 302 302 302 301 301 301 301 301 301 300 300 300 299 299 298 297 297 296 295 293 292 291 290 289 288 288 288 288 288 287 287 287 287 287 287 287 287 287 287 287 287 286 286
312 315 313 314 317 318 318 318 320 321 322 323 321 319 318 316 318 319 318 322 324 321 319 316 316 318 318 318 319 319 319 318 318 317 316 316 312 308 308 308 308 308 307 306 306 306 305 305 304 304 303 303 302 302 301 301 301 300 300 300 300 300 300 299 299 299 298 298 297 296 295 294 293 292 291 290 289 288 288 287 287 287 287 287 286 286 286 286 286 287 286 286 286 286 286 285 285
309 312 312 312 314 319 320 319 319 320 321 324 322 319 319 319 321 320 318 318 318 320 324 323 321 320 319 318 318 319 319 319 318 315 316 316 312 308 308 308 308 307 307 306 306 305 305 304 304 303 302 302 301 301 301 300 300 300 299 299 299 299 299 298 298 298 297 297 296 295 294 293 292 290 290 289 288 288 288 287 287 287 287 286 286 285 285 285 285 286 286 285 285 284 285 284 284
312 313 314 312 312 315 317 317 318 319 320 321 320 318 319 319 320 319 317 316 316 319 324 327 325 323 321 320 319 320 319 318 317 315 315 315 311 308 308 308 307 306 306 305 305 305 304 303 303 302 302 301 301 300 300 299 299 299 299 298 298 298 298 297 297 297 296 295 294 294 293 291 290 289 288 288 288 288 287 287 287 286 286 286 285 285 284 284 285 285 285 285 284 284 283 283 283
314 315 316 316 316 317 318 319 318 317 318 320 320 318 317 318 319 318 316 316 318 321 321 323 325 323 322 322 320 321 320 318 317 315 315 316 312 307 307 307 306 305 305 304 304 304 303 303 302 302 301 301 300 300 299 299 299 298 298 298 297 297 297 296 296 295 295 294 293 292 291 290 289 288 288 288 287 287 287 287 286 286 286 286 285 284 284 284 284 284 284 284 284 283 282 282 282
Wind_Speed
3 3 5 5 7 9 6 3 2 2 2 3 4 2 2 1 3 5 5 4 3 3 3 4 4 2 1 1 1 3 3 2 1 1 2 4 9 9 8 8 5 4 5 6 5 4 3 2 0 1 1 1 2 2 4 5 6 7 8 8 9 9 9 9 10 10 11 11 12 12 13 14 14 15 16 16 17 18 18 18 19 20 21 22 23 24 24 25 24 24 24 25 25 24 23 21 21
2 3 7 7 7 6 2 1 2 2 3 4 3 3 3 3 2 5 7 5 3 3 3 4 4 4 2 1 3 3 3 1 3 2 3 8 11 9 8 8 5 4 5 6 4 2 3 4 2 1 1 0 2 3 4 5 6 7 8 9 9 9 9 9 10 11 11 12 12 13 13 14 14 15 16 16 17 17 17 18 19 20 21 22 23 24 25 25 24 24 25 25 25 24 23 22 23
4 3 5 7 6 5 2 1 2 3 3 3 1 2 3 3 6 8 8 7 6 5 5 4 3 2 1 2 2 1 2 1 5 4 5 11 10 9 10 8 7 6 5 5 5 5 5 6 4 3 1 0 2 3 4 5 6 7 8 9 9 9 9 10 11 11 11 12 12 13 13 14 14 15 16 16 17 17 17 17 19 20 22 23 24 24 24 25 25 25 25 25 25 24 24 24 23
5 4 4 7 4 3 2 2 2 3 4 1 2 2 2 6 8 8 7 7 5 5 3 3 2 1 2 1 1 1 2 2 5 3 4 8 9 12 12 9 8 7 6 4 6 6 6 7 6 4 3 1 1 3 4 5 6 7 9 9 9 9 9 10 11 11 11 12 13 13 13 14 15 15 16 17 17 16 17 18 19 21 22 23 23 24 24 24 26 26 25 24 24 24 24 24 22
3 3 6 6 3 1 2 2 2 3 3 2 2 2 5 7 8 8 6 5 4 3 2 2 1 1 1 1 1 1 2 3 4 4 7 10 11 14 11 8 8 8 5 2 5 6 6 8 7 5 3 2 1 3 4 5 6 7 9 9 9 9 10 10 11 11 12 12 13 13 14 15 15 16 16 17 17 16 17 18 19 20 21 22 23 24 25 24 25 26 25 25 25 25 25 23 22
3 4 7 5 2 0 1 2 3 4 3 3 3 3 5 6 7 8 6 5 2 1 2 1 1 1 1 1 2 1 2 4 5 5 10 13 11 12 9 8 8 7 4 2 4 5 7 9 7 6 4 3 2 3 5 5 6 7 9 9 9 9 9 10 11 11 12 12 13 13 14 15 16 16 17 17 17 16 16 17 19 20 21 22 23 25 26 25 25 25 25 25 25 25 24 23 22
5 4 5 4 2 0 1 4 4 4 1 3 3 4 5 5 6 8 7 4 2 1 1 0 2 1 1 2 2 2 5 5 6 6 11 14 12 11 8 8 8 6 5 4 5 5 8 9 8 7 5 4 3 4 5 5 6 8 9 9 9 9 9 10 10 11 12 13 13 14 15 15 16 16 17 18 16 15 16 17 18 20 21 23 24 25 26 26 26 26 26 27 26 24 23 23 22
6 2 1 2 2 1 3 4 5 4 0 2 4 4 5 6 5 6 6 3 2 3 2 2 2 0 1 1 1 5 9 6 8 9 11 13 11 10 8 7 7 7 6 6 5 6 8 9 8 6 6 6 5 5 6 6 7 8 9 9 9 9 9 10 10 11 12 13 14 15 16 16 16 16 17 17 16 15 15 17 18 20 22 24 24 24 25 26 26 26 26 27 26 24 23 22 21
5 3 0 1 2 2 4 4 5 5 1 4 4 4 5 5 3 4 5 3 3 4 4 5 4 2 1 2 2 5 9 9 11 12 11 11 10 9 9 8 6 7 8 6 6 6 7 8 7 6 7 6 6 6 6 7 8 9 9 9 9 9 9 10 11 11 12 14 14 15 16 16 16 16 17 17 16 15 15 16 18 20 22 24 23 24 25 25 25 25 25 26 26 25 24 22 21
4 4 1 1 2 3 4 4 4 2 2 4 5 5 5 4 3 2 4 5 5 5 4 5 4 3 1 2 2 4 10 13 13 12 11 10 10 9 9 8 6 7 7 6 6 6 6 7 7 6 7 7 7 7 7 8 8 9 9 10 9 9 10 11 11 12 13 14 15 16 16 16 16 16 17 17 17 16 15 16 18 19 22 23 22 23 24 25 26 25 25 26 25 24 23 20 19
3 3 0 1 2 4 4 3 4 2 4 3 5 6 4 4 3 2 3 4 4 5 5 5 3 5 3 3 1 5 13 15 13 13 13 11 10 10 9 8 8 7 7 7 8 7 7 7 7 6 6 6 7 7 7 8 8 9 9 9 9 9 10 11 11 12 13 14 15 15 16 16 16 16 17 18 17 16 15 16 19 19 21 22 22 24 25 26 27 26 25 25 23 21 20 19 17
2 3 2 1 3 4 3 2 4 2 4 3 4 4 3 4 4 3 4 3 4 5 5 6 1 1 4 3 1 7 13 13 12 13 14 12 11 10 9 8 9 7 7 9 9 8 7 6 6 7 6 6 6 7 7 7 8 8 9 9 9 9 9 10 11 12 13 14 15 16 16 15 15 15 16 18 17 16 16 16 19 20 21 22 22 25 26 26 26 25 24 23 21 19 18 17 16
2 3 2 3 3 3 3 3 5 4 1 0 3 2 2 4 4 3 4 4 6 5 5 9 2 2 3 1 3 7 10 11 11 13 15 13 11 11 11 8 8 7 6 7 7 8 7 6 5 7 7 7 7 6 6 7 7 7 8 8 8 9 9 10 11 12 13 13 15 16 15 15 17 17 17 19 19 17 16 16 19 21 22 21 23 25 26 27 25 23 22 21 19 18 18 17 16
2 2 1 2 1 2 3 3 4 4 2 1 2 0 2 2 1 1 1 5 5 3 2 5 4 2 2 1 3 4 8 13 13 14 14 12 11 11 10 9 8 7 6 5 6 6 5 4 4 6 8 7 6 6 5 6 7 7 8 8 8 8 8 10 11 12 12 13 14 15 14 15 19 18 17 20 20 17 15 16 18 22 23 21 22 25 26 26 22 21 20 19 18 19 19 18 17
2 2 2 2 2 3 2 2 3 4 1 2 1 2 2 1 2 3 2 3 2 1 2 1 3 2 1 1 2 3 10 16 15 14 14 12 12 10 10 11 9 8 6 5 5 5 5 5 6 6 8 7 6 6 5 7 8 7 7 7 7 8 8 9 10 11 12 13 15 15 14 15 18 17 15 18 19 16 15 17 18 22 23 21 22 23 26 25 20 19 18 18 18 18 20 20 20
1 2 1 1 3 4 2 3 3 4 0 2 1 2 3 2 1 1 1 1 1 2 2 1 4 1 3 1 4 8 13 15 15 15 14 13 13 10 10 11 9 8 8 7 6 7 7 7 8 7 6 6 5 5 5 7 9 7 7 7 6 7 8 9 10 11 12 14 16 15 14 14 17 14 12 17 19 16 17 18 19 21 22 23 22 22 28 25 18 17 17 18 19 19 20 21 21
1 1 1 2 4 4 1 1 1 2 2 2 2 2 3 2 2 1 2 1 3 2 3 3 5 3 3 3 11 13 14 15 15 15 14 12 12 10 9 9 9 9 10 9 7 8 9 8 9 8 7 7 7 6 6 8 9 7 6 6 7 8 9 10 10 11 13 14 16 14 13 12 14 13 11 17 19 16 17 18 18 20 20 22 22 21 28 26 17 17 18 18 20 20 20 20 20
1 1 2 4 4 3 2 3 2 1 2 3 3 3 4 1 2 1 1 4 5 5 5 5 6 6 7 6 14 16 14 15 16 16 14 12 11 11 11 11 11 12 13 12 10 9 9 8 8 8 7 8 8 7 6 6 7 5 6 7 8 9 10 12 12 12 12 13 15 14 12 12 13 14 12 17 19 16 17 17 17 18 18 20 20 21 28 27 17 16 19 18 17 18 18 18 19
2 1 3 3 2 1 3 4 4 3 2 2 3 2 3 1 1 2 1 5 6 6 7 6 8 8 10 10 14 17 16 16 17 16 15 14 13 13 13 14 14 13 13 12 11 11 10 8 8 7 7 9 8 6 5 4 5 4 6 7 8 8 9 12 12 12 13 13 15 14 12 12 14 14 12 16 18 17 17 16 15 16 16 17 19 21 27 29 21 15 17 17 15 17 18 17 17
2 1 3 2 0 1 4 5 4 4 4 2 1 2 1 2 1 2 3 6 6 8 7 7 9 9 10 11 14 18 17 17 17 16 16 16 15 14 13 12 12 12 11 9 10 12 10 8 9 8 8 10 7 4 4 3 3 4 4 5 6 6 6 9 9 9 12 13 15 14 13 13 14 13 12 15 17 17 17 16 14 15 16 17 17 20 25 28 25 17 14 14 14 15 15 15 17
1 1 3 1 2 2 3 4 4 3 3 3 3 2 2 3 1 2 3 6 6 7 7 7 8 10 11 11 15 18 16 14 15 15 15 15 15 14 12 10 9 9 9 10 9 10 9 8 10 9 9 10 7 5 4 3 4 4 2 4 6 4 5 7 7 7 9 11 13 13 13 13 12 12 12 15 16 17 17 16 15 15 16 16 16 18 22 26 27 23 19 15 14 14 11 12 15
1 2 1 2 2 1 1 4 3 3 1 2 3 1 2 2 2 5 5 6 5 3 2 1 1 1 2 5 11 15 12 11 13 14 14 15 16 15 13 11 10 7 8 10 8 7 9 10 10 10 10 9 7 6 5 6 6 3 1 5 5 2 4 6 5 6 7 9 12 12 13 12 11 11 12 14 15 16 17 17 16 15 15 15 16 17 19 22 25 26 24 21 19 17 13 12 13
2 2 1 3 1 0 1 3 1 2 1 2 2 2 3 3 5 6 9 12 8 2 4 4 5 5 4 6 7 9 9 9 11 15 16 16 16 17 15 13 12 11 9 9 9 9 11 11 10 11 10 9 8 7 8 7 5 2 3 5 2 1 3 3 3 6 6 7 10 12 13 12 10 10 12 13 13 14 17 17 16 15 14 15 16 16 17 19 22 25 25 24 23 23 19 14 14
2 4 1 2 1 0 2 2 2 1 2 3 2 4 3 6 6 2 8 14 11 7 3 6 6 5 3 4 6 6 8 9 12 16 18 19 19 18 16 15 13 13 11 10 10 10 12 10 10 12 11 9 9 8 8 6 3 4 4 2 1 3 3 2 4 5 5 7 8 11 13 12 9 9 11 13 12 12 15 16 16 15 13 14 14 14 15 17 19 22 23 23 23 24 23 18 16
4 3 1 1 0 1 4 3 3 2 4 3 3 4 6 8 4 4 12 13 10 11 7 5 7 6 5 6 7 7 7 9 11 12 12 15 17 16 14 14 13 13 13 12 11 11 12 11 10 11 12 11 9 8 6 5 5 6 4 1 3 4 2 1 4 4 5 6 7 10 12 11 10 9 11 13 11 11 13 15 15 15 14 13 13 12 14 16 17 20 20 21 21 22 23 22 19
3 1 1 1 2 3 4 4 5 4 4 2 2 6 7 5 3 8 16 15 12 11 10 8 7 7 7 7 8 7 7 8 9 11 10 11 13 14 14 15 15 14 14 13 12 13 13 12 11 11 12 11 10 9 6 6 7 5 3 3 4 2 2 3 3 4 5 5 6 9 10 10 10 9 10 12 11 11 12 15 15 15 14 12 12 12 14 15 16 18 17 18 19 19 21 22 22
1 1 3 3 2 3 5 4 5 5 4 5 4 6 7 2 1 7 10 6 7 9 9 9 8 8 8 7 8 8 8 9 12 14 13 13 14 15 16 16 16 15 15 14 13 14 14 12 11 11 12 11 12 10 7 7 8 5 5 4 3 3 4 3 1 3 5 5 7 9 9 9 9 8 10 11 10 11 11 14 15 15 14 12 14 13 14 15 14 17 15 15 16 17 18 19 22
1 1 4 5 4 4 6 6 5 4 2 5 5 7 9 3 3 13 9 3 4 7 7 8 8 8 8 8 8 7 7 11 15 15 13 14 17 17 18 18 18 16 15 15 14 15 14 13 12 12 12 12 13 10 9 9 8 6 6 3 3 5 3 1 1 3 4 5 8 9 9 9 9 8 10 10 9 10 10 12 14 14 13 14 15 13 13 14 12 15 14 12 15 15 14 16 19
1 1 4 4 5 5 7 7 4 3 2 4 3 7 8 6 11 18 9 6 5 6 7 7 8 8 7 8 8 7 8 11 14 14 15 17 18 19 20 19 18 17 16 15 16 16 15 14 13 12 13 13 13 11 10 9 7 6 4 3 4 5 2 1 1 3 4 4 7 9 9 10 9 8 9 9 8 10 10 10 13 13 12 14 15 13 14 13 12 15 14 12 15 15 13 14 16
1 2 3 3 3 4 5 5 4 3 2 4 2 4 5 6 15 15 5 9 7 6 7 7 7 7 7 7 7 6 8 10 12 14 16 17 18 20 20 19 18 18 17 17 18 17 16 15 13 13 13 13 12 11 9 8 7 7 4 4 5 4 1 1 2 3 4 3 5 8 9 9 9 9 10 9 9 9 9 9 11 12 13 14 15 14 14 12 12 15 16 14 14 15 14 13 15
0 2 2 3 3 2 2 4 5 4 1 3 2 2 7 9 9 7 7 9 8 6 8 7 7 7 7 7 7 7 7 9 13 15 17 18 18 18 19 19 18 17 17 19 19 17 17 16 14 13 13 13 12 12 11 10 9 7 6 6 6 4 3 2 2 3 3 2 3 6 8 8 8 9 9 9 9 9 8 8 10 11 13 14 14 14 13 12 12 13 15 16 15 14 13 13 14
2 1 2 3 3 2 2 2 4 3 1 4 3 1 8 9 3 7 6 7 7 7 8 7 8 8 8 7 7 7 6 10 14 16 18 19 19 18 19 19 19 19 17 17 18 18 17 16 14 13 13 13 13 12 12 11 10 8 8 8 7 5 4 3 4 3 1 0 2 4 6 7 7 8 8 9 8 8 9 9 10 10 12 13 12 13 13 12 14 13 13 16 17 15 13 12 12
3 3 2 2 4 3 2 1 2 1 1 4 5 3 6 5 2 5 6 7 8 8 7 8 9 8 8 7 7 7 6 8 11 15 19 22 20 20 21 19 19 20 17 16 18 19 18 17 15 13 13 13 12 12 11 10 9 8 9 9 7 5 5 4 4 1 0 1 3 4 5 5 6 7 7 8 7 7 9 9 10 10 11 12 10 11 12 12 13 14 14 14 17 17 15 13 11
4 4 4 3 3 4 2 2 2 2 2 3 5 6 10 10 6 5 6 8 8 8 9 9 8 7 8 7 7 7 7 8 8 12 19 22 21 20 21 21 19 20 19 17 18 19 19 18 16 14 14 13 12 12 11 10 9 8 8 7 7 6 7 5 2 2 2 3 3 4 4 4 5 5 5 6 6 6 6 8 10 10 11 11 10 11 12 12 12 13 15 14 16 19 17 16 12
1 2 2 3 3 4 4 2 1 3 3 4 5 8 14 16 13 11 10 9 10 11 10 9 8 8 8 8 8 7 8 8 8 13 19 21 21 20 21 21 20 20 20 18 19 19 18 18 17 14 14 14 12 12 11 10 9 9 8 7 6 5 6 6 4 3 3 2 2 3 3 3 4 4 4 5 5 5 5 8 9 10 10 10 12 13 14 14 12 11 12 13 16 19 19 17 12
1 1 1 3 4 5 3 2 1 2 2 6 8 9 13 16 15 12 11 9 11 12 10 9 8 8 8 8 8 8 9 8 10 17 21 20 21 21 20 21 21 19 20 20 19 20 19 19 18 16 15 15 14 13 12 12 10 11 10 8 7 6 6 5 5 4 3 1 1 1 2 2 2 2 3 3 4 4 4 6 8 8 8 8 11 13 14 14 13 11 9 10 14 19 22 19 12
1 2 2 3 4 5 2 3 1 2 1 6 8 9 12 15 16 13 10 9 10 11 10 10 9 9 8 9 9 9 9 7 10 18 20 20 21 20 20 20 20 18 20 22 21 21 20 20 19 18 16 15 15 15 14 13 12 12 11 9 10 10 7 5 5 4 2 1 1 1 1 1 1 1 1 2 2 2 3 4 6 7 7 7 9 11 12 12 12 12 9 7 10 17 22 22 16
1 2 3 4 5 5 1 4 2 1 0 5 7 9 12 13 16 15 12 10 11 12 11 12 11 10 8 9 9 9 7 6 9 13 16 20 20 19 19 20 21 21 21 23 24 22 20 20 19 18 18 17 16 14 13 13 13 13 12 11 12 11 8 7 6 4 2 2 2 2 2 2 1 1 1 0 1 1 2 3 5 7 7 9 8 8 10 12 12 13 12 9 8 13 18 23 20
0 0 2 3 4 2 2 3 1 2 2 4 6 9 13 15 17 18 16 13 12 11 11 12 12 11 10 9 9 8 7 7 9 9 12 18 20 19 19 20 21 22 22 23 24 22 20 19 18 18 18 18 16 13 13 14 14 13 12 12 14 12 11 10 7 4 3 3 3 3 3 3 3 2 2 1 1 1 1 3 4 4 6 9 7 7 9 11 12 13 14 11 10 10 13 19 22
2 3 1 3 2 1 0 1 2 3 4 3 7 8 11 13 14 15 13 9 7 5 3 3 5 7 7 6 7 8 9 9 10 9 10 14 18 19 19 20 21 21 22 23 23 22 21 20 19 18 18 18 18 16 16 16 15 14 13 13 13 12 10 10 7 5 4 4 4 4 4 4 3 3 3 2 2 2 2 3 3 3 5 6 5 6 9 10 11 12 13 12 11 11 12 14 18
4 4 2 4 1 2 2 3 6 5 1 2 5 7 7 6 6 8 6 3 4 2 0 3 1 2 1 1 1 5 9 10 10 10 10 11 14 18 20 21 21 22 23 24 24 24 22 21 20 19 19 19 19 19 18 17 16 15 15 13 12 10 9 8 8 7 5 4 5 5 5 5 4 4 4 4 4 3 3 3 3 3 4 4 4 6 8 9 10 12 12 12 11 12 12 12 13
3 1 2 2 2 3 3 6 7 5 3 2 2 4 6 5 6 9 7 4 5 2 3 6 5 4 4 3 3 3 4 8 10 10 10 10 13 17 20 21 22 23 23 24 24 23 22 21 20 19 20 19 19 19 19 16 15 16 16 16 15 14 13 11 10 9 7 6 6 6 6 6 6 5 6 5 5 5 4 4 4 4 4 4 5 6 7 8 10 12 12 12 12 12 13 14 14
2 2 4 3 2 3 4 5 4 2 4 4 3 2 5 8 10 10 8 7 7 3 4 7 6 6 6 6 6 5 4 6 9 9 10 11 13 16 17 21 23 23 23 23 23 22 21 21 21 20 21 20 19 18 18 16 16 15 15 17 17 16 16 15 13 11 10 8 7 7 7 7 7 6 7 7 6 6 6 6 6 6 6 6 6 6 7 8 9 11 12 12 12 13 14 17 16
2 3 4 4 3 3 3 3 1 2 5 3 2 4 2 7 10 7 5 7 6 4 7 8 7 7 8 6 7 7 7 7 7 9 10 11 13 16 18 21 23 23 23 23 23 22 22 22 21 21 20 20 19 18 18 18 17 15 14 16 15 17 18 17 15 13 11 10 9 9 8 8 8 8 8 8 8 7 8 8 8 8 8 8 8 8 9 9 9 10 11 12 12 14 16 17 17
2 2 2 2 3 2 2 1 2 3 3 4 2 2 1 6 9 6 2 4 6 7 7 7 8 7 7 7 7 8 8 8 8 9 10 10 13 17 20 22 22 22 23 25 24 23 22 22 22 21 20 20 19 19 19 19 18 16 17 17 16 17 18 17 16 14 13 12 11 10 10 10 9 9 10 9 9 9 9 9 9 9 10 10 10 10 10 10 10 10 11 12 13 15 16 17 17
1 2 2 0 1 1 1 1 2 2 2 4 5 3 1 5 8 6 2 2 5 5 2 5 8 7 7 7 7 8 7 6 7 9 8 10 15 18 21 22 22 22 23 24 24 23 22 22 22 22 21 20 20 20 21 20 19 19 20 21 20 18 18 17 17 16 15 14 13 12 10 10 10 10 11 11 10 10 10 10 10 10 11 12 12 11 11 11 11 11 12 12 13 15 16 17 18
2 2 2 1 1 0 0 2 1 1 2 5 4 3 2 2 7 6 3 2 4 2 2 1 6 7 7 7 7 8 7 6 6 7 8 10 15 19 21 21 21 21 22 23 24 23 23 23 23 22 21 21 21 21 22 21 21 21 22 23 22 21 20 20 20 18 17 16 15 14 12 11 10 11 11 12 12 11 11 11 11 12 12 13 13 12 12 11 12 12 12 13 14 15 16 17 18
1 1 1 2 1 1 2 1 1 1 3 4 2 1 2 2 6 5 4 3 3 3 2 2 5 7 7 7 7 7 7 7 7 7 8 9 11 15 19 20 20 21 22 23 24 24 24 23 23 23 22 21 22 21 21 22 21 21 22 23 23 23 22 23 22 21 20 18 17 16 14 13 12 11 12 13 13 12 12 12 12 12 13 14 14 14 13 13 13 13 14 14 15 16 16 17 18
0 1 3 3 2 2 1 1 1 2 4 3 2 1 1 5 9 9 11 11 7 2 2 3 3 5 6 7 7 7 7 7 8 7 7 8 8 10 14 18 19 21 22 23 24 24 24 24 24 24 23 22 22 22 21 21 22 21 22 22 23 23 23 23 23 22 21 20 19 18 16 15 13 13 13 14 14 13 13 13 13 13 14 15 15 15 15 15 15 15 16 16 16 16 16 17 19
2 2 3 2 1 1 2 2 2 2 2 3 3 2 2 5 7 9 11 8 3 2 4 3 3 1 4 7 7 6 7 7 7 8 8 8 8 9 13 17 19 21 23 24 25 25 25 24 24 23 22 21 21 21 21 21 22 21 21 22 23 23 23 22 22 22 21 20 19 18 17 16 15 14 14 15 14 14 14 14 14 15 16 16 17 17 16 16 16 16 17 17 17 16 16 17 18
3 3 4 3 3 2 2 2 2 3 2 2 3 2 4 3 4 6 5 4 4 3 3 3 1 2 3 4 7 6 7 7 6 7 8 8 8 11 14 17 20 22 23 24 25 25 25 24 24 23 22 21 21 21 21 22 22 22 22 23 23 23 23 22 22 22 21 21 20 19 18 17 17 16 16 16 15 15 16 16 16 17 17 17 17 17 17 16 16 16 17 17 17 16 16 17 17
2 1 4 2 2 2 2 1 2 1 2 2 2 3 5 5 8 9 4 3 2 2 3 2 2 4 1 3 6 6 6 7 6 7 7 8 9 13 16 18 20 22 23 24 25 25 25 24 23 22 22 22 21 22 22 22 22 22 23 23 24 24 23 23 23 22 22 22 21 20 19 19 19 18 18 18 17 17 17 17 17 17 18 18 17 17 17 17 16 16 16 17 17 16 16 16 16
1 2 1 3 2 2 1 1 1 2 1 4 4 4 6 3 8 9 1 2 3 2 3 3 5 5 4 4 5 6 6 6 6 7 7 8 10 14 17 19 21 22 23 24 25 25 25 25 24 23 22 22 22 22 22 23 23 23 23 24 24 24 24 24 25 24 23 22 22 21 21 20 20 20 20 19 19 18 17 17 18 18 17 17 17 16 16 17 17 16 16 16 16 16 16 16 15
2 2 3 3 1 1 1 0 2 1 4 4 4 6 5 2 5 5 3 2 6 5 6 5 5 6 6 6 6 6 7 6 7 7 7 8 9 13 16 18 20 22 23 24 24 24 24 25 25 25 24 24 23 23 23 23 24 25 25 25 25 25 25 25 26 25 25 24 23 22 22 21 21 22 22 21 20 19 18 17 18 18 17 16 16 15 14 14 16 16 15 15 15 16 17 17 15
2 3 2 1 1 0 1 1 1 2 4 4 4 7 5 4 5 4 3 5 7 6 6 5 6 7 6 7 7 7 7 7 7 7 7 7 8 12 16 17 19 21 22 22 22 23 23 24 24 24 24 24 24 24 24 24 25 25 25 25 25 25 25 25 25 25 25 25 24 23 23 22 22 22 22 22 21 20 18 17 16 16 16 15 15 14 13 13 14 15 16 15 14 16 17 17 15
1 1 2 1 1 2 2 2 1 2 3 4 4 5 4 6 6 6 7 6 3 4 6 6 7 7 7 7 7 7 7 7 7 7 8 7 8 12 16 17 19 20 20 21 22 22 23 23 23 23 23 23 24 24 25 25 25 25 25 25 25 25 24 24 25 25 25 24 24 24 24 23 23 22 21 21 20 19 17 16 15 15 15 15 14 13 13 13 13 15 15 15 14 15 16 16 15
2 1 1 1 1 1 1 2 2 3 2 3 4 6 5 5 5 6 7 4 2 3 5 6 7 7 8 7 7 7 7 8 8 7 8 7 8 11 15 16 17 18 19 20 22 23 23 23 24 24 24 24 25 25 25 25 25 25 25 25 25 24 24 24 24 25 25 25 25 24 24 23 22 21 20 19 17 16 16 15 14 15 15 15 14 13 12 13 14 15 15 14 14 14 15 15 14
5 5 5 5 4 3 1 4 3 2 2 3 3 8 7 4 4 5 5 3 2 2 3 4 5 5 7 7 8 8 8 8 8 7 7 7 7 11 14 17 18 19 20 21 22 22 23 23 24 24 25 26 26 26 26 26 25 25 25 25 25 25 25 25 25 25 25 25 24 24 24 23 22 21 19 18 17 16 16 15 15 15 16 15 14 13 13 14 15 16 15 14 13 14 15 15 15
Wind_Direction
283 288 291 308 308 304 279 241 262 230 211 266 255 168 74 24 130 131 120 128 129 75 66 93 81 71 36 67 286 322 273 252 87 172 210 173 151 152 157 165 188 180 156 167 227 271 274 252 277 212 130 30 306 308 319 323 327 332 336 339 338 340 341 342 341 340 339 337 336 334 332 331 330 330 330 330 329 328 328 328 326 325 324 322 320 319 318 317 316 312 309 309 309 307 304 299 293
245 292 289 288 284 285 288 187 269 249 208 252 269 104 130 177 126 84 95 103 85 96 97 87 78 83 66 332 272 307 268 234 94 119 135 145 150 156 160 167 176 165 159 168 198 233 254 269 295 256 149 65 323 322 325 328 331 336 339 340 340 341 341 342 341 340 340 339 338 335 334 333 332 332 332 331 330 329 329 328 327 326 324 323 321 321 320 318 314 312 311 311 311 307 301 295 291
234 244 276 278 261 242 281 203 258 275 246 247 333 75 155 137 88 73 79 89 93 111 96 92 99 98 158 218 248 291 219 161 102 110 134 149 155 158 159 155 159 163 170 178 176 182 234 263 282 277 252 185 334 328 331 332 334 339 339 340 341 343 343 342 341 341 340 340 340 336 335 334 333 334 333 333 331 332 330 329 328 327 326 324 324 323 322 319 316 315 315 313 311 306 299 295 294
239 219 261 279 256 211 259 221 238 282 280 285 61 7 67 87 94 89 86 96 107 128 118 134 131 80 233 205 335 318 208 123 106 125 128 144 144 146 153 148 154 170 190 205 176 179 221 246 267 277 265 238 321 326 331 333 335 339 340 341 342 344 343 343 341 341 342 341 340 338 336 334 334 335 334 333 333 333 332 331 330 329 328 327 327 325 322 319 317 317 316 314 311 305 300 299 298
222 230 257 275 287 223 282 257 266 263 281 347 87 18 53 88 109 104 103 111 123 148 128 156 139 135 248 285 321 283 174 113 116 129 108 120 131 140 150 142 150 179 207 238 157 177 223 239 263 275 267 256 278 314 323 328 334 338 339 342 344 345 344 342 342 341 342 341 340 339 335 334 335 335 336 334 334 334 333 333 333 332 331 330 329 325 322 320 319 317 316 316 311 305 303 303 302
221 245 241 246 282 5 304 268 271 241 264 352 98 88 64 94 114 115 122 116 113 94 79 152 109 108 268 172 198 210 128 128 146 144 123 131 140 143 149 136 148 181 191 192 158 183 232 244 265 273 272 278 271 295 312 320 327 331 338 343 344 345 345 342 342 341 341 341 341 339 336 336 336 336 338 336 336 336 336 336 335 335 334 332 329 327 326 325 324 321 317 315 309 306 305 306 306
246 251 216 215 254 129 261 259 262 258 296 2 86 109 90 102 116 126 138 126 128 133 105 199 81 64 272 147 211 175 134 131 133 135 138 141 144 144 146 139 149 174 170 182 187 199 230 248 267 273 273 283 280 279 296 310 316 322 334 342 344 343 343 341 340 340 340 341 341 338 339 340 339 339 341 340 339 339 339 338 337 337 336 332 330 329 328 328 328 325 320 314 312 309 306 307 308
244 254 175 208 249 173 240 257 260 271 78 57 68 98 105 121 139 144 155 158 165 163 182 169 118 169 209 178 254 166 151 137 121 126 140 145 150 149 147 149 153 175 181 181 192 215 236 254 268 273 272 278 280 272 283 295 305 316 328 336 340 341 339 338 338 339 339 340 341 341 343 346 342 343 344 343 342 340 339 338 339 339 337 335 333 331 329 330 330 328 322 317 316 312 309 310 310
224 217 356 260 249 232 237 250 265 275 150 116 93 95 101 126 168 163 151 138 145 152 170 166 164 179 147 205 209 157 151 138 133 133 140 151 161 156 150 160 161 176 188 187 198 225 244 261 271 274 277 277 278 277 279 286 300 312 321 330 335 335 333 332 334 337 339 342 345 345 348 349 345 346 348 345 344 341 339 340 341 340 339 338 338 336 334 334 331 329 325 321 319 315 315 316 314
202 198 291 315 252 273 257 238 238 245 109 106 114 131 121 137 176 201 159 135 151 147 135 133 161 219 286 249 211 146 148 144 146 146 150 161 166 158 154 163 165 176 190 198 207 225 243 263 277 278 280 278 279 281 283 289 298 306 315 326 331 331 330 330 335 339 342 348 349 350 352 352 349 350 351 349 347 344 342 345 345 341 340 341 340 338 336 334 330 328 328 327 324 321 320 319 316
206 189 167 312 251 251 254 250 244 159 115 113 108 121 128 152 160 206 179 125 145 141 116 119 171 229 253 259 232 127 144 151 159 159 161 171 173 161 157 166 174 183 193 199 205 216 230 256 275 277 277 280 282 284 287 291 295 303 312 322 328 329 331 333 338 344 348 352 353 354 356 356 353 352 355 354 350 346 343 348 349 342 339 340 341 339 337 335 335 334 334 336 333 330 330 326 321
227 195 154 232 252 244 262 312 302 18 111 149 113 114 135 152 160 189 186 148 157 161 154 168 187 206 202 235 207 139 148 159 164 163 166 174 176 163 159 176 189 193 202 209 214 220 228 243 265 281 284 285 289 288 290 291 292 300 310 320 327 329 333 337 342 348 352 355 357 358 358 360 358 359 4 1 354 349 344 346 350 346 341 341 343 343 341 341 342 342 343 347 344 343 343 337 331
249 227 175 215 232 263 312 344 319 335 7 118 80 98 166 159 189 197 184 182 174 183 182 180 146 39 221 225 137 156 156 161 156 156 165 171 174 171 168 179 200 203 210 219 221 225 232 238 252 278 286 290 294 289 290 289 294 302 311 320 324 329 334 340 347 351 355 358 0 359 358 5 5 5 8 5 359 351 347 345 350 353 349 344 347 348 346 346 346 347 350 353 353 355 354 348 342
284 289 278 246 229 274 297 312 307 307 307 61 52 289 212 175 234 2 196 201 178 186 186 169 138 68 254 131 155 176 147 149 149 152 159 163 170 180 181 182 207 214 217 225 222 226 235 248 242 254 273 288 294 296 301 293 299 307 313 321 324 331 337 344 350 353 357 359 3 1 2 9 7 3 360 2 357 351 351 350 353 360 357 350 350 351 350 350 351 355 358 358 358 360 359 355 353
302 332 330 281 293 284 227 223 260 271 287 94 320 265 211 73 23 4 323 220 175 139 63 102 145 123 253 200 188 136 132 143 147 152 156 162 168 181 190 188 210 222 227 229 222 229 231 243 241 242 261 276 282 295 307 292 297 310 316 323 326 332 340 347 352 354 357 0 7 5 8 11 3 356 351 356 357 356 1 359 360 4 2 355 351 351 352 354 358 4 8 5 360 4 1 355 360
313 343 313 250 281 279 201 199 228 245 305 82 296 285 219 141 91 296 358 348 309 164 125 171 188 189 325 2 119 117 130 144 147 153 159 169 172 181 201 204 214 227 238 239 224 226 228 225 232 241 248 253 252 257 265 275 292 311 318 323 330 336 347 351 350 355 358 3 6 3 13 12 354 354 354 353 357 2 4 2 3 5 3 359 354 350 354 359 1 9 12 5 2 9 6 358 3
294 315 259 247 249 256 228 192 218 215 123 114 219 233 237 168 144 252 62 282 264 214 188 213 204 217 288 122 133 136 139 147 150 154 161 172 180 187 208 221 219 223 230 236 230 219 228 229 228 234 231 240 243 243 246 261 287 307 316 329 345 344 351 354 352 355 358 2 1 1 15 4 346 1 3 350 357 4 1 358 359 3 1 359 356 347 354 3 4 9 10 5 5 7 4 358 3
253 175 214 244 238 246 353 13 354 305 107 119 178 209 270 239 158 154 88 243 239 250 241 223 221 216 229 173 144 149 152 154 156 159 165 171 183 193 205 215 214 219 218 221 227 209 214 228 231 229 222 239 245 250 261 270 291 317 331 337 345 343 346 349 352 352 350 354 355 2 9 350 348 9 2 347 355 2 359 355 355 0 0 358 356 344 353 5 9 14 11 5 8 6 2 358 359
227 205 225 235 249 306 14 16 24 4 28 89 138 168 290 333 102 116 223 237 202 230 247 221 229 225 223 202 161 156 160 162 167 168 171 178 187 195 205 207 204 209 207 206 212 198 199 213 226 228 216 234 245 252 274 295 313 335 339 329 331 336 336 339 345 342 338 342 349 359 1 352 357 6 356 345 354 3 0 358 357 0 360 358 358 348 351 3 9 14 11 7 11 11 8 5 3
206 232 242 232 18 57 37 27 42 18 360 347 75 102 278 278 88 126 237 261 220 219 224 205 224 225 216 208 178 166 169 171 175 179 178 185 194 201 209 210 201 200 198 197 190 182 189 200 212 221 214 230 240 235 266 295 299 304 313 304 311 322 318 326 334 327 329 333 339 352 358 358 359 358 353 346 355 4 1 0 3 3 358 358 3 353 348 359 8 10 10 13 14 14 15 13 10
199 218 235 285 5 35 49 47 41 11 14 339 344 70 271 271 197 202 248 271 250 233 223 209 218 220 211 205 186 172 173 175 178 188 188 191 197 204 212 214 208 197 189 184 174 180 197 200 206 217 216 230 234 212 234 241 236 262 282 278 296 314 309 316 327 329 326 320 328 347 356 356 356 355 350 348 357 2 1 4 8 6 359 359 7 359 348 353 5 12 14 15 11 9 12 12 7
289 228 178 53 23 24 67 76 44 345 18 284 294 300 300 340 269 234 236 243 239 229 207 214 53 177 196 170 170 167 170 181 186 194 199 201 201 205 211 210 208 197 184 183 187 204 207 201 205 215 219 230 228 202 211 225 231 245 222 263 291 317 295 310 332 330 313 310 325 342 350 354 358 355 347 351 359 358 2 7 7 7 360 1 8 1 353 352 359 9 16 18 17 14 10 9 5
256 242 104 89 86 135 72 80 69 314 297 247 273 314 327 309 266 229 219 231 229 179 107 93 68 68 62 84 126 159 173 188 196 199 202 205 203 203 205 204 207 205 202 204 208 206 202 205 205 208 219 226 220 201 207 225 231 209 224 260 300 290 290 330 329 306 312 331 331 329 342 356 0 354 348 354 360 358 3 6 5 6 1 2 7 3 1 357 355 3 13 17 21 26 24 21 22
219 254 225 113 54 159 99 102 179 257 264 262 321 330 297 257 268 265 234 237 232 235 168 126 121 119 128 124 143 174 188 194 203 205 203 205 206 205 203 201 202 200 197 199 199 199 205 215 213 208 212 217 222 216 209 216 207 213 244 277 323 287 318 11 293 303 344 347 324 317 336 355 3 357 351 356 3 2 3 4 4 6 6 2 4 9 7 0 354 358 8 15 20 30 33 30 30
210 259 268 126 279 149 122 139 184 210 240 255 300 279 257 249 275 301 257 247 232 237 234 175 154 153 178 190 184 189 196 199 198 194 191 193 196 197 197 195 192 190 192 192 192 197 203 213 219 209 204 208 218 226 210 186 200 228 252 229 252 276 323 294 289 345 356 333 315 318 334 353 6 1 353 357 7 13 6 4 6 7 8 3 0 8 10 1 356 356 1 13 21 30 35 33 31
218 302 19 202 195 155 148 192 194 195 228 203 252 263 257 256 312 276 253 248 236 224 229 214 181 179 194 199 199 199 200 200 189 178 176 176 177 183 188 190 191 195 198 196 193 197 202 210 214 205 203 201 203 220 209 183 208 230 242 228 244 262 265 273 317 8 328 315 311 323 341 356 4 1 353 355 9 21 9 2 8 8 7 9 6 5 9 4 358 358 355 2 17 29 34 35 32
260 353 317 272 214 170 172 214 202 190 217 181 208 269 263 235 66 261 250 241 222 201 210 209 189 201 207 208 212 208 206 207 193 178 177 177 176 184 190 193 197 202 202 198 196 198 203 205 201 197 201 195 197 210 196 196 214 209 218 231 242 253 256 267 359 333 307 307 309 334 355 356 5 6 354 355 11 20 8 0 6 7 10 20 15 4 8 6 359 0 358 357 10 21 28 34 33
311 344 296 256 215 218 200 217 213 185 208 186 207 268 260 207 189 248 241 127 154 171 194 202 202 219 217 219 217 208 209 213 200 181 178 179 179 187 190 193 196 198 200 196 194 196 199 194 189 193 196 194 201 202 190 205 215 208 222 213 220 258 266 274 41 292 294 300 311 342 357 356 10 6 355 4 18 18 10 2 1 6 15 23 16 8 7 6 4 4 6 15 15 15 26 35 35
334 307 290 250 212 233 210 198 183 172 181 177 218 281 261 199 218 245 229 154 162 174 196 200 208 222 220 223 213 203 202 206 203 191 189 184 183 190 190 192 193 192 195 193 192 195 195 188 186 192 195 200 202 196 193 206 207 210 223 175 219 256 278 333 312 281 293 303 316 337 347 354 4 1 2 16 26 20 15 5 358 6 22 24 16 14 12 5 10 11 12 30 25 19 31 38 37
348 211 253 269 244 243 194 162 133 155 179 168 196 294 272 226 229 240 185 150 168 187 211 205 205 210 211 216 202 201 197 199 205 200 196 189 189 192 187 189 191 189 190 190 190 192 191 186 188 192 195 201 197 192 193 201 205 207 197 182 227 242 181 250 269 275 297 322 324 325 335 346 351 355 4 18 32 23 18 11 359 10 28 25 15 13 14 11 16 16 14 28 32 23 28 39 40
279 187 218 239 247 253 171 150 153 166 216 182 154 248 268 279 243 205 149 163 172 194 218 210 211 208 204 205 195 205 203 201 207 203 197 193 194 188 180 182 183 184 184 188 190 190 192 189 192 194 194 199 193 191 191 195 207 196 177 193 224 223 175 201 242 260 280 339 327 311 324 338 345 351 358 14 34 23 20 21 2 16 32 22 14 13 15 21 22 20 19 22 29 27 26 40 44
216 186 234 202 197 224 181 167 176 182 277 195 161 219 264 282 244 150 149 175 181 206 223 213 215 209 198 196 191 206 208 200 205 204 196 195 196 185 178 179 180 181 180 186 190 191 195 191 194 192 190 197 193 197 198 197 205 187 178 198 215 206 167 189 232 253 284 328 281 291 317 334 342 348 353 7 28 23 22 28 11 24 36 21 15 16 16 29 30 25 27 21 19 26 28 35 46
215 205 250 193 187 220 196 219 228 204 230 198 199 263 276 270 173 156 170 185 197 215 228 224 218 207 197 191 191 202 202 191 197 203 196 194 194 185 183 182 183 187 184 186 188 190 194 190 192 190 188 196 194 199 202 197 198 187 187 198 203 189 168 200 226 199 155 261 269 296 319 324 332 343 351 1 22 23 11 19 24 34 41 27 23 25 19 30 37 30 30 25 16 23 30 28 38
212 201 249 264 228 236 234 249 240 189 196 222 216 238 260 260 249 231 209 197 204 213 221 227 222 206 197 189 190 197 197 189 187 197 193 189 188 182 183 183 183 189 187 190 192 192 194 189 188 188 187 193 194 199 199 193 193 187 190 193 194 187 175 189 195 169 215 265 293 312 314 306 319 336 348 357 17 33 8 3 25 42 45 35 33 39 31 31 44 37 31 30 20 23 31 26 22
132 159 234 302 291 257 252 241 215 195 189 225 235 240 257 264 264 255 239 213 210 218 218 220 220 210 199 191 196 196 195 194 184 188 187 182 180 178 182 182 184 189 186 189 192 190 191 187 184 184 186 189 192 196 190 187 188 181 184 189 188 187 180 180 172 190 232 273 303 309 301 295 310 328 343 352 6 41 32 357 11 39 43 39 39 44 41 35 42 42 35 30 25 28 32 29 23
40 97 267 306 304 281 269 117 173 258 214 231 239 243 258 269 269 261 251 224 214 225 224 217 217 212 202 194 197 194 196 199 182 183 183 175 171 173 179 181 184 190 186 184 184 184 186 183 181 184 187 189 189 191 187 184 186 182 186 190 177 173 180 178 181 206 244 275 277 286 281 294 300 312 331 342 357 35 47 4 1 27 40 37 33 36 40 37 36 40 41 29 25 31 35 35 34
294 321 304 274 273 276 271 104 173 287 283 250 248 253 263 271 274 270 261 240 227 229 226 224 219 214 210 202 197 191 194 191 165 168 169 163 164 170 176 179 179 181 182 180 177 178 183 182 183 186 187 189 189 190 186 184 188 186 189 190 176 176 187 186 193 213 226 190 198 216 213 252 265 264 311 336 354 23 59 32 5 16 42 46 26 21 31 41 42 43 51 47 28 29 34 33 35
307 314 296 283 269 268 58 98 204 178 86 269 283 287 277 276 279 277 268 252 242 233 225 226 220 215 216 210 207 196 178 150 140 148 150 152 160 167 171 174 174 174 177 180 177 176 181 184 185 186 186 188 188 189 185 185 192 192 194 191 178 176 180 183 194 203 177 170 184 182 183 181 184 175 165 44 30 21 68 67 27 16 44 59 38 6 19 41 51 51 49 56 47 33 33 32 34
291 255 316 299 269 275 52 82 188 151 188 273 314 310 286 278 277 275 269 256 247 239 229 224 213 210 215 212 213 202 169 149 149 151 149 153 159 164 167 170 174 177 177 180 178 176 178 182 183 186 189 185 183 187 186 190 194 189 187 186 181 177 176 183 194 191 166 167 175 175 176 172 163 150 143 133 108 98 91 88 58 35 51 63 55 20 21 35 48 54 46 49 61 51 40 34 35
223 192 213 264 291 18 252 302 308 229 208 279 320 304 283 278 274 271 267 258 257 254 251 243 194 195 209 204 207 199 182 168 165 164 157 157 160 163 167 169 173 176 175 176 176 176 179 180 181 186 189 184 183 184 185 194 196 187 183 183 189 191 185 187 187 169 162 169 171 172 170 162 156 149 142 138 136 121 110 113 85 70 74 71 69 49 35 34 47 57 48 47 59 56 48 41 35
231 197 214 255 327 31 244 314 323 286 239 347 319 301 277 274 285 288 296 333 316 293 292 313 289 198 211 104 221 210 188 173 170 171 165 162 163 166 169 169 171 173 173 175 176 180 182 179 181 185 184 185 189 189 189 197 195 189 185 179 181 181 171 170 165 153 159 174 171 166 160 152 151 150 143 141 140 129 117 125 111 95 96 85 80 69 51 42 52 61 53 50 55 54 58 58 45
254 201 353 318 37 19 323 337 339 339 345 304 7 347 291 293 309 293 294 298 283 238 205 247 243 224 228 219 221 239 205 175 171 173 167 165 165 164 166 167 169 171 174 177 179 182 183 181 183 185 183 188 193 193 195 198 193 191 189 182 177 170 165 169 169 163 165 174 167 156 150 147 149 146 142 140 136 131 123 124 119 109 104 94 86 82 71 55 57 66 62 56 63 69 72 68 58
284 286 325 334 40 25 357 3 11 355 287 254 125 110 275 299 299 277 267 259 247 199 210 233 225 212 215 213 201 205 215 184 172 171 166 166 166 162 165 169 170 172 176 179 179 180 181 182 184 185 187 192 195 193 195 194 192 195 195 191 189 182 175 173 174 174 173 172 158 147 146 144 144 141 138 136 132 130 127 124 122 117 110 102 97 91 82 68 65 73 72 66 72 82 79 68 62
233 260 309 343 24 19 27 44 102 238 286 295 143 153 238 292 288 269 251 262 267 244 233 226 211 201 195 197 195 191 201 194 174 169 166 167 170 167 167 171 172 174 176 177 177 178 181 184 184 186 191 196 196 194 193 191 191 195 193 191 195 193 185 176 173 176 173 165 152 145 146 143 140 138 135 134 131 130 129 126 125 124 118 109 104 96 86 79 78 83 83 78 79 86 84 76 70
211 266 307 5 27 5 37 86 229 262 321 318 247 168 176 264 279 289 251 262 287 277 249 218 202 194 180 186 190 183 192 194 173 167 168 169 170 169 168 169 173 176 178 180 179 179 183 184 184 187 193 197 197 194 194 191 192 195 193 191 191 188 186 180 175 172 167 162 153 143 139 138 140 139 136 135 135 134 132 129 129 128 120 112 107 101 95 89 86 86 87 85 83 86 88 84 78
225 274 262 263 48 331 36 139 252 289 283 263 238 181 174 267 279 290 296 279 272 273 268 196 189 180 174 179 178 174 182 183 162 158 162 164 166 167 166 165 168 174 180 182 182 181 183 184 185 189 195 198 197 196 196 193 193 196 197 196 190 182 179 176 170 166 163 161 152 142 138 138 139 138 136 136 137 137 135 133 133 131 124 116 111 107 104 98 92 89 90 91 89 90 92 89 83
248 271 260 222 150 131 229 198 235 6 255 259 240 173 142 287 277 264 226 210 214 234 332 173 161 158 167 171 169 170 174 171 154 147 150 153 158 161 160 159 161 168 175 179 181 182 184 186 188 191 195 198 198 198 198 197 198 200 200 200 195 186 179 172 166 163 163 162 155 150 149 146 142 139 137 137 136 136 136 135 136 134 129 124 118 112 109 106 101 98 97 98 96 94 96 95 89
269 292 349 21 356 351 23 2 49 103 252 271 279 149 126 225 265 264 237 245 246 243 260 166 162 173 173 169 172 170 167 166 157 149 148 145 147 153 154 156 159 165 171 177 181 183 186 187 189 191 194 198 198 198 200 199 198 199 200 200 197 190 182 175 170 167 166 165 161 158 156 152 149 146 143 141 138 137 136 135 137 137 133 128 123 119 115 112 110 107 103 102 100 99 100 101 94
299 59 61 52 348 324 354 319 183 202 245 256 247 328 245 241 256 264 270 280 290 284 130 108 145 180 178 174 174 169 162 164 165 161 157 155 154 157 157 159 164 169 174 179 182 184 186 188 191 192 194 196 197 197 199 198 196 196 197 195 192 187 181 177 173 169 169 170 166 163 159 157 156 154 152 147 143 143 141 140 140 138 134 130 127 124 122 120 118 114 110 106 103 103 103 103 98
167 137 114 125 189 289 273 259 237 238 258 253 258 286 269 274 267 252 257 258 239 83 83 86 71 110 206 188 170 163 163 166 171 166 164 169 170 168 166 167 171 176 180 182 184 186 187 188 192 194 194 195 196 196 196 195 194 193 191 189 185 182 178 177 175 172 171 171 168 164 161 160 161 161 157 152 149 149 146 144 142 138 135 133 131 130 128 128 127 123 119 114 108 107 109 108 105
183 162 118 134 158 185 233 245 268 281 302 285 310 306 218 232 261 234 204 175 169 124 103 98 51 308 279 177 154 153 163 173 178 171 173 180 176 174 174 174 178 181 183 184 186 187 188 189 192 193 192 193 195 195 195 193 190 188 186 184 181 179 178 177 175 173 172 171 168 166 166 168 168 166 161 155 153 152 149 147 145 141 138 137 136 136 135 133 134 131 127 123 118 116 116 113 111
224 97 93 141 197 183 205 205 224 264 328 287 253 252 220 215 270 267 204 168 220 152 130 131 241 259 276 151 161 165 174 181 181 179 180 180 178 180 180 180 183 184 184 186 187 188 189 189 191 193 194 194 194 193 192 190 187 185 183 182 180 179 178 177 174 174 174 173 171 170 171 173 172 168 162 157 154 153 151 150 148 145 143 143 142 142 141 138 137 134 131 129 124 122 119 113 112
274 79 135 240 227 143 169 275 357 80 303 261 204 254 285 298 291 288 220 216 265 187 185 220 221 212 199 201 196 186 191 191 185 186 185 182 182 185 186 184 184 184 185 187 189 191 192 190 190 192 193 193 192 191 189 187 185 183 182 182 181 180 179 179 177 176 176 174 173 174 173 173 173 168 162 158 156 154 154 154 151 149 147 146 145 144 144 143 139 133 130 127 125 124 119 111 111
106 162 242 271 273 84 112 295 339 327 264 262 198 228 272 302 282 307 35 293 265 228 216 222 208 194 201 223 221 203 198 189 186 190 190 189 186 186 187 187 186 187 188 190 191 193 193 193 193 193 192 191 190 189 188 187 186 183 183 183 183 183 182 182 181 178 176 174 173 174 172 172 172 169 164 161 158 156 157 158 155 151 148 145 141 138 139 141 138 131 125 122 124 126 121 112 111
123 201 251 3 113 238 177 173 261 249 259 283 244 234 236 205 239 285 288 257 250 222 208 210 212 206 211 227 224 210 199 186 187 194 195 194 188 187 186 185 187 189 190 191 191 192 193 195 195 195 194 192 190 189 187 188 188 186 185 186 185 184 184 184 181 178 176 174 174 173 172 172 171 169 167 164 161 159 160 160 156 150 146 142 138 134 133 136 135 130 125 123 126 128 123 116 113
41 332 334 40 176 196 187 183 181 199 256 290 280 263 235 208 224 234 234 246 243 204 204 215 225 218 213 216 211 207 202 196 198 198 198 195 189 189 187 184 186 187 190 191 190 191 193 193 194 194 193 191 189 189 188 188 188 187 186 186 185 185 184 183 180 178 176 175 174 173 172 172 170 169 168 165 163 161 161 160 155 149 145 142 140 137 138 139 136 130 126 123 125 126 122 117 115
135 156 223 211 211 188 197 257 197 165 233 276 289 279 239 211 237 223 217 253 277 201 208 224 228 216 208 207 203 204 205 206 207 200 198 194 184 185 185 185 186 186 188 190 189 191 192 192 193 192 191 190 189 190 190 189 188 188 187 185 185 184 183 182 180 178 177 175 175 174 172 170 167 166 165 163 162 162 162 160 155 151 147 143 141 141 143 143 136 129 126 123 124 123 118 116 115
157 176 194 187 177 139 97 272 245 163 209 204 234 276 258 213 236 231 221 257 259 178 190 233 245 225 210 207 201 201 205 209 210 201 193 187 178 178 178 179 182 183 184 187 190 191 192 192 193 193 193 192 191 191 190 190 189 188 187 186 185 184 183 182 180 179 177 175 173 172 170 168 165 163 164 164 163 163 164 162 159 156 151 146 144 144 146 145 138 131 127 126 127 125 120 117 115